Location: *
(13.2257°S, 48.7193°W)
Time: 18:16:13
(UTC+00:00)

SL-16 R/B - Pass Details

Date: 23 May 2026
Orbit: 984 x 1007 km, 99.8° (Epoch: 10 June)

Event Time Altitude Azimuth Distance (km) Brightness Sun altitude
Rises 07:27:55 0° 158° (SSE) 3,745 5.6 -28.6°
Reaches altitude 10° 07:30:29 10° 152° (SSE) 2,791 5.0 -28.0°
Maximum altitude 07:36:33 51° 78° (ENE) 1,253 3.4 -26.6°
Drops below altitude 10° 07:42:34 10° 3° (N) 2,767 5.1 -25.2°
Sets 07:45:06 0° 358° (N) 3,710 5.7 -24.6°
